Location: Pabrico
(37.5827°N, 122.0063°W)
Time: 22:38:05
(UTC+00:00)

Cosmos 1656 Rocket - Pass Details

Date: 13 April 2024
Orbit: 796 x 844 km, 71.1° (Epoch: 20 May)

Event Time Altitude Azimuth Distance (km) Brightness Sun altitude
Rises 12:54:47 0° 341° (NNW) 3,307 6.8 -8.5°
Reaches altitude 10° 12:57:14 10° 345° (NNW) 2,372 6.1 -8.0°
Maximum altitude 13:02:35 61° 66° (ENE) 902 4.3 -7.0°
Drops below altitude 10° 13:07:55 10° 146° (SSE) 2,364 6.3 -6.0°
Sets 13:10:21 0° 150° (SSE) 3,295 7.0 -5.6°
